Selawik, AK

1:26 AM AKDT on July 23, 2017 (GMT -0800)
Selawik

Weather History for PASK - February, 2014

Change the Weather History Date:

Thursday, February 20, 2014

  Actual Average Record
Temperature  
Mean Temperature -30 °F -  
Max Temperature -25 °F 6 °F 33 °F (2008)
Min Temperature -34 °F -2 °F -36 °F (2017)
Degree Days  
Heating Degree Days 94    
Moisture  
Dew Point -28 °F    
Average Humidity 90    
Maximum Humidity 100    
Minimum Humidity 83    
Precipitation  
Precipitation 0.00 in - - ()
Sea Level Pressure  
Sea Level Pressure 30.22 in    
Wind  
Wind Speed 0 mph (NE)    
Max Wind Speed 5 mph    
Max Gust Speed -    
Visibility 10 miles    
Events      
Averages and records for this station are not official NWS values.
T = Trace of Precipitation, MM = Missing Value Source: NWS Daily Summary

Daily Weather History Graph

Daily Weather History Graph

Search for Another Location

Airport or City:

Trip Planner

Search our weather history database for the weather conditions in past years. The results will help you decide how hot, cold, wet, or windy it might be!

Date:

Astronomy

Feb. 20, 2014 Rise Set
Actual Time 9:28 AM AKST 6:20 PM AKST
Civil Twilight 8:33 AM AKST 7:15 PM AKST
Nautical Twilight 7:32 AM AKST 8:16 PM AKST
Astronomical Twilight 6:31 AM AKST 9:18 PM AKST
Moon 1:51 AM AKST (2/20) 9:44 AM AKST (2/20)
Length of Visible Light 10h 42m
Length of Day
8h 52m
Waning Gibbous, 69% of the Moon is Illuminated
Feb 20
Waning Gibbous
Feb 22
Last Quarter
Feb 28
New
Mar 8
First Quarter
Mar 16
Full

Hourly Weather History & Observations

Time (AKST) Temp. Windchill Dew Point Humidity Pressure Visibility Wind Dir Wind Speed Gust Speed Precip Events Conditions
12:16 AM -31.0 °F - - N/A% 30.07 in 10.0 mi Calm Calm - N/A   Clear
12:36 AM -32.8 °F - - N/A% 30.08 in 10.0 mi Calm Calm - N/A   Clear
12:56 AM -34.6 °F - - N/A% 30.08 in 10.0 mi Calm Calm - N/A   Clear
1:16 AM -32.8 °F - - N/A% 30.09 in 10.0 mi Calm Calm - N/A   Clear
1:36 AM -29.2 °F - - N/A% 30.09 in 10.0 mi Calm Calm - N/A   Clear
1:56 AM - - - N/A% 30.09 in 10.0 mi Calm Calm - N/A   Clear
2:16 AM - - - N/A% 30.10 in 10.0 mi Calm Calm - N/A   Clear
2:36 AM - - - N/A% 30.10 in 10.0 mi Calm Calm - N/A   Clear
2:56 AM - - - N/A% 30.11 in 9.0 mi Calm Calm - N/A   Clear
3:16 AM - - - N/A% 30.12 in 10.0 mi Calm Calm - N/A   Clear
3:36 AM -34.6 °F - - N/A% 30.13 in 10.0 mi Calm Calm - N/A   Clear
3:56 AM -32.8 °F - - N/A% 30.13 in 10.0 mi Calm Calm - N/A   Clear
4:16 AM -34.6 °F - - N/A% 30.13 in 10.0 mi Calm Calm - N/A   Clear
4:36 AM -34.6 °F - - N/A% 30.14 in 10.0 mi Calm Calm - N/A   Clear
4:56 AM -32.8 °F - - N/A% 30.14 in 10.0 mi Calm Calm - N/A   Clear
5:16 AM - - - N/A% 30.14 in 10.0 mi Calm Calm - N/A   Clear
5:36 AM - - - N/A% 30.15 in 10.0 mi NNE 3.5 mph - N/A   Clear
5:56 AM - - - N/A% 30.15 in 10.0 mi Calm Calm - N/A   Clear
6:16 AM - - - N/A% 30.15 in 10.0 mi Calm Calm - N/A   Clear
6:36 AM - - - N/A% 30.16 in 10.0 mi NE 4.6 mph - N/A   Clear
6:56 AM - - - N/A% 30.16 in 10.0 mi Calm Calm - N/A   Clear
7:16 AM - - - N/A% 30.16 in 10.0 mi Calm Calm - N/A   Clear
7:36 AM -34.6 °F - - N/A% 30.17 in 10.0 mi Calm Calm - N/A   Clear
7:56 AM -34.6 °F - - N/A% 30.18 in 10.0 mi Calm Calm - N/A   Clear
8:16 AM - - - N/A% 30.18 in 10.0 mi East 3.5 mph - N/A   Clear
8:36 AM - - - N/A% 30.19 in 10.0 mi Calm Calm - N/A   Clear
8:56 AM - - - N/A% 30.19 in 10.0 mi NE 4.6 mph - N/A   Clear
9:16 AM - - - N/A% 30.19 in 10.0 mi ENE 3.5 mph - N/A   Clear
9:36 AM - - - N/A% 30.20 in 10.0 mi Calm Calm - N/A   Clear
9:56 AM - - - N/A% 30.20 in 10.0 mi NE 3.5 mph - N/A   Clear
10:16 AM -34.6 °F -47.4 °F - N/A% 30.21 in 10.0 mi ENE 3.5 mph - N/A   Clear
10:36 AM -34.6 °F - - N/A% 30.22 in 10.0 mi Calm Calm - N/A   Clear
10:56 AM -34.6 °F - - N/A% 30.22 in 10.0 mi Calm Calm - N/A   Clear
11:16 AM -34.6 °F - - N/A% 30.22 in 10.0 mi Calm Calm - N/A   Clear
11:36 AM -32.8 °F - - N/A% 30.23 in 10.0 mi Calm Calm - N/A   Clear
11:56 AM -32.8 °F - - N/A% 30.24 in 10.0 mi Calm Calm - N/A   Clear
12:16 PM -31.0 °F - - N/A% 30.24 in 10.0 mi Calm Calm - N/A   Clear
12:36 PM -31.0 °F - - N/A% 30.25 in 10.0 mi Calm Calm - N/A   Clear
12:56 PM -29.2 °F - - N/A% 30.25 in 10.0 mi Calm Calm - N/A   Clear
1:16 PM -29.2 °F - - N/A% 30.25 in 10.0 mi Calm Calm - N/A   Clear
1:36 PM -29.2 °F - - N/A% 30.25 in 10.0 mi Calm Calm - N/A   Clear
1:56 PM -27.4 °F -39.2 °F -29.2 °F 91% 30.26 in 10.0 mi ENE 3.5 mph - N/A   Clear
2:16 PM -27.4 °F - -27.4 °F 100% 30.26 in 10.0 mi Calm Calm - N/A   Clear
2:36 PM -27.4 °F - - N/A% 30.26 in 10.0 mi Calm Calm - N/A   Clear
2:56 PM -27.4 °F - - N/A% 30.26 in 10.0 mi Calm Calm - N/A   Clear
3:16 PM -25.6 °F - -27.4 °F 91% 30.26 in 10.0 mi Calm Calm - N/A   Clear
3:36 PM -25.6 °F - - N/A% 30.26 in 10.0 mi Calm Calm - N/A   Clear
3:56 PM -25.6 °F - - N/A% 30.26 in 10.0 mi Calm Calm - N/A   Clear
4:16 PM -25.6 °F - -29.2 °F 83% 30.27 in 10.0 mi Calm Calm - N/A   Clear
4:36 PM -25.6 °F - -29.2 °F 83% 30.27 in 10.0 mi Calm Calm - N/A   Clear
4:56 PM -25.6 °F - - N/A% 30.27 in 10.0 mi Calm Calm - N/A   Clear
5:16 PM -25.6 °F - - N/A% 30.27 in 10.0 mi Calm Calm - N/A   Clear
5:36 PM -25.6 °F - - N/A% 30.27 in 10.0 mi Calm Calm - N/A   Clear
5:56 PM -25.6 °F - - N/A% 30.28 in 9.0 mi Calm Calm - N/A   Clear
6:16 PM -27.4 °F - - N/A% 30.28 in 9.0 mi Calm Calm - N/A   Clear
6:36 PM -29.2 °F - - N/A% 30.28 in 10.0 mi Calm Calm - N/A   Clear
6:56 PM -29.2 °F - - N/A% 30.28 in 10.0 mi Calm Calm - N/A   Clear
7:16 PM -29.2 °F -41.2 °F - N/A% 30.28 in 10.0 mi NNE 3.5 mph - N/A   Clear
7:36 PM -29.2 °F - - N/A% 30.29 in 10.0 mi Calm Calm - N/A   Clear
7:56 PM -29.2 °F - - N/A% 30.29 in 10.0 mi Calm Calm - N/A   Clear
8:16 PM -29.2 °F - - N/A% 30.29 in 10.0 mi Calm Calm - N/A   Clear
8:36 PM -29.2 °F - - N/A% 30.29 in 10.0 mi Calm Calm - N/A   Clear
8:56 PM -29.2 °F - - N/A% 30.30 in 10.0 mi Calm Calm - N/A   Clear
9:16 PM -29.2 °F -41.2 °F - N/A% 30.30 in 10.0 mi ENE 3.5 mph - N/A   Clear
9:36 PM -29.2 °F - - N/A% 30.31 in 10.0 mi Calm Calm - N/A   Clear
9:56 PM -31.0 °F - - N/A% 30.31 in 10.0 mi Calm Calm - N/A   Clear
10:16 PM -31.0 °F - - N/A% 30.32 in 10.0 mi Calm Calm - N/A   Clear
10:36 PM -31.0 °F - - N/A% 30.32 in 10.0 mi Calm Calm - N/A   Clear
10:56 PM -32.8 °F -45.3 °F - N/A% 30.32 in 10.0 mi NE 3.5 mph - N/A   Clear
11:16 PM -32.8 °F - - N/A% 30.32 in 10.0 mi Calm Calm - N/A   Clear
11:36 PM - - - N/A% 30.32 in 10.0 mi Calm Calm - N/A   Clear
11:56 PM -32.8 °F - - N/A% 30.34 in 10.0 mi Calm Calm - N/A   Clear